This demonstration page uses our WeatherBlox Daily Observations layout. Learn more.

Left ArrowRight Arrow

Hourly Observations for May 23, 2019

Temp ( °F °C ) Dew Point ( °F °C ) Humidity (%) Winds ( mph kmh ) Pressure ( in mb ) Visibility ( mi km ) Precip ( " mm )
12:52 am 00:52 Mostly Clear 55 12.8 44 6.7 67 67 Calm 29.94 1014 10 16 0.00 0.00
1:52 am 01:52 Mostly Clear 52 11.1 46 7.8 80 80 Calm 29.97 1015 10 16 0.00 0.00
2:52 am 02:52 Mostly Clear 52 11.1 45 7.2 77 77 Calm 29.96 1015 10 16 0.00 0.00
3:52 am 03:52 Partly Cloudy 53 11.7 45 7.2 74 74 SW 7 11 30.01 1016 10 16 0.00 0.00
4:52 am 04:52 Partly Cloudy 52 11.1 43 6.1 72 72 W 6 9 30.03 1017 10 16 0.00 0.00
5:52 am 05:52 Partly Cloudy 47 8.3 44 6.7 90 90 NW 7 11 30.04 1017 10 16 0.00 0.00
6:52 am 06:52 Mostly Cloudy 52 11.1 45 7.2 77 77 SW 5 7 30.08 1019 10 16 0.00 0.00
7:52 am 07:52 Mostly Cloudy 55 12.8 47 8.3 74 74 Calm 30.10 1019 10 16 0.00 0.00
8:52 am 08:52 Mostly Cloudy 57 13.9 47 8.3 69 69 N 3 6 30.12 1020 10 16 0.00 0.00
9:52 am 09:52 Cloudy 58 14.4 47 8.3 67 67 NNE 6 9 30.13 1020 10 16 0.00 0.00
10:52 am 10:52 Mostly Cloudy 61 16.1 47 8.3 60 60 N 3 6 30.13 1020 10 16 0.00 0.00
11:52 am 11:52 Mostly Cloudy 62 16.7 47 8.3 58 58 VRB 3 6 30.12 1020 10 16 0.00 0.00
12:52 pm 12:52 Mostly Cloudy 66 18.9 44 6.7 45 45 NNE 7 11 30.11 1020 10 16 0.00 0.00
1:52 pm 13:52 Mostly Cloudy 66 18.9 46 7.8 49 49 NNE 6 9 30.11 1020 10 16 0.00 0.00
2:52 pm 14:52 Cloudy 67 19.4 46 7.8 47 47 Calm 30.09 1019 10 16 0.00 0.00
3:52 pm 15:52 Cloudy 67 19.4 49 9.4 53 53 N 9 15 30.09 1019 10 16 0.00 0.00
4:34 pm 16:34 Cloudy with Thunderstorms 66 18.9 49 9.4 54 54 WNW 9 15 30.18 1022 10 16 0.00 0.03
4:52 pm 16:52 Cloudy with Thunderstorms 63 17.2 53 11.7 70 70 NNE 13 20 30.12 1020 7 11 0.01 0.25
5:12 pm 17:12 Cloudy with Light Rain 61 16.1 53 11.7 75 75 NNE 29 46 29.96 1014 10 16 0.02 0.51
5:52 pm 17:52 Cloudy 63 17.2 51 10.6 65 65 NE 6 9 30.07 1018 10 16 0.02 0.51
6:52 pm 18:52 Cloudy 63 17.2 52 11.1 68 68 E 3 6 30.03 1017 10 16 0.00 0.00
7:52 pm 19:52 Cloudy 62 16.7 52 11.1 70 70 ENE 7 11 30.00 1016 10 16 0.00 0.00
8:52 pm 20:52 Cloudy 63 17.2 51 10.6 65 65 VRB 6 9 29.98 1015 10 16 0.00 0.00
9:06 pm 21:06 Cloudy with Thunderstorms 63 17.2 51 10.6 65 65 E 8 13 29.96 1015 10 16 0.00 0.00
9:52 pm 21:52 Cloudy with Strong Thunderstorms 62 16.7 54 12.2 75 75 S 10 17 30.03 1017 5 8 0.03 0.76
9:56 pm 21:56 Cloudy with Strong Thunderstorms 60 15.6 54 12.2 80 80 SE 13 20 30.01 1016 2 3 0.08 2.03
10:06 pm 22:06 Cloudy with Thunderstorms 58 14.4 54 12.2 87 87 N 12 19 29.95 1014 3 5 0.25 6.35
10:22 pm 22:22 Mostly Cloudy with Light Rain 60 15.6 53 11.7 78 78 N 13 20 30.00 1016 10 16 0.26 6.60
10:52 pm 22:52 Cloudy with Light Rain 59 15 54 12.2 83 83 NNE 18 30 29.98 1015 7 11 0.30 7.62
11:18 pm 23:18 Cloudy with Thunderstorms 58 14.4 55 12.8 90 90 N 16 26 30.02 1017 9 14 0.05 1.27
11:52 pm 23:52 Cloudy with Thunderstorms 58 14.4 55 12.8 90 90 NE 10 17 30.01 1016 6 10 0.15 3.81

Powered by AerisWeather